Weather History for KEAT - November, 2014

Change the Weather History Date:

Friday, November 14, 2014

  Actual Average Record
Temperature  
Mean Temperature 19 °F 35 °F  
Max Temperature 32 °F 42 °F 57 °F (2002)
Min Temperature 6 °F 28 °F 6 °F (2014)
Degree Days  
Heating Degree Days 46 30  
Month to date heating degree days 403 390  
Since 1 July heating degree days 1016 1346  
Cooling Degree Days 0 0  
Month to date cooling degree days 0 0  
Year to date cooling degree days 408 249  
Moisture  
Dew Point 9 °F    
Average Humidity 46    
Maximum Humidity 62    
Minimum Humidity 28    
Precipitation  
Precipitation 0.00 in 0.07 in 0.35 in (1981)
Month to date precipitation 0.82 0.92  
Year to date precipitation 14.07 13.26  
Snow  
Snow 0.00 in 0.30 in - ()
Month to date snowfall T 1.7  
Since 1 July snowfall T 1.8  
Since 1 September snowfall T 1.8  
Snow Depth 0.00 in    
Sea Level Pressure  
Sea Level Pressure 30.21 in    
Wind  
Wind Speed 6 mph (WNW)    
Max Wind Speed 10 mph    
Max Gust Speed -    
Visibility 10 miles    
Events      
T = Trace of Precipitation, MM = Missing Value Source: NWS Daily Summary

Daily Weather History Graph

Daily Weather History Graph

Search for Another Location

Airport or City:

Trip Planner

Search our weather history database for the weather conditions in past years. The results will help you decide how hot, cold, wet, or windy it might be!

Date:

Astronomy

Nov. 14, 2014 Rise Set
Actual Time 7:04 AM PST 4:25 PM PST
Civil Twilight 6:30 AM PST 4:59 PM PST
Nautical Twilight 5:53 AM PST 5:36 PM PST
Astronomical Twilight 5:17 AM PST 6:12 PM PST
Moon 11:54 PM PST (11/14) 12:49 PM PST (11/14)
Length of Visible Light 10h 28m
Length of Day
9h 21m
Waning Gibbous, 48% of the Moon is Illuminated
Nov 14
Waning Gibbous
Nov 22
New
Nov 29
First Quarter
Dec 6
Full
Dec 14
Last Quarter

Hourly Weather History & Observations

Time (PST) Temp. Windchill Dew Point Humidity Pressure Visibility Wind Dir Wind Speed Gust Speed Precip Events Conditions
12:55 AM 26.1 °F 19.4 °F 9.0 °F 49% 30.12 in 10.0 mi NW 5.8 mph - N/A   Overcast
1:55 AM 25.0 °F 18.1 °F 10.0 °F 53% 30.12 in 10.0 mi WNW 5.8 mph - N/A   Mostly Cloudy
2:55 AM 23.0 °F 17.0 °F 6.1 °F 48% 30.12 in 10.0 mi NW 4.6 mph - N/A   Scattered Clouds
3:55 AM 21.9 °F 14.5 °F 9.0 °F 58% 30.13 in 10.0 mi WNW 5.8 mph - N/A   Clear
4:55 AM 21.0 °F 14.6 °F 9.0 °F 60% 30.14 in 10.0 mi NW 4.6 mph - N/A   Clear
5:55 AM 19.9 °F 14.9 °F 7.0 °F 57% 30.15 in 10.0 mi WNW 3.5 mph - N/A   Clear
6:55 AM 18.0 °F 12.7 °F 7.0 °F 62% 30.17 in 10.0 mi NW 3.5 mph - N/A   Clear
7:55 AM 19.9 °F 14.9 °F 9.0 °F 62% 30.18 in 10.0 mi WNW 3.5 mph - N/A   Clear
8:55 AM 24.1 °F 18.2 °F 10.0 °F 55% 30.19 in 10.0 mi WNW 4.6 mph - N/A   Clear
9:55 AM 27.0 °F 19.5 °F 10.0 °F 49% 30.19 in 10.0 mi WNW 6.9 mph - N/A   Clear
10:55 AM 30.0 °F 25.2 °F 9.0 °F 41% 30.19 in 10.0 mi Variable 4.6 mph - N/A   Clear
11:55 AM 33.1 °F 26.9 °F 10.0 °F 38% 30.18 in 10.0 mi West 6.9 mph - N/A   Clear
12:55 PM 36.0 °F 29.0 °F 8.1 °F 31% 30.18 in 10.0 mi WNW 9.2 mph - N/A   Clear
1:55 PM 37.0 °F 29.8 °F 7.0 °F 29% 30.18 in 10.0 mi West 10.4 mph - N/A   Clear
2:55 PM 37.0 °F 30.4 °F 6.1 °F 28% 30.19 in 10.0 mi West 9.2 mph - N/A   Clear
3:55 PM 36.0 °F 30.3 °F 8.1 °F 31% 30.20 in 10.0 mi West 6.9 mph - N/A   Clear
4:55 PM 32.0 °F 27.5 °F 9.0 °F 38% 30.23 in 10.0 mi NNW 4.6 mph - N/A   Clear
5:55 PM 30.0 °F 25.2 °F 9.0 °F 41% 30.27 in 10.0 mi NNW 4.6 mph - N/A   Clear
6:55 PM 28.0 °F 20.0 °F 7.0 °F 41% 30.29 in 10.0 mi West 8.1 mph - N/A   Clear
7:55 PM 30.9 °F 27.5 °F 9.0 °F 40% 30.30 in 10.0 mi WNW 3.5 mph - N/A   Clear
8:55 PM 28.9 °F 21.9 °F 10.0 °F 45% 30.32 in 10.0 mi WNW 6.9 mph - N/A   Clear
9:55 PM 28.9 °F 23.9 °F 10.0 °F 45% 30.34 in 10.0 mi SW 4.6 mph - N/A   Clear
10:55 PM 25.0 °F 20.7 °F 10.0 °F 53% 30.37 in 10.0 mi Variable 3.5 mph - N/A   Clear
11:55 PM 25.0 °F 20.7 °F 10.0 °F 53% 30.39 in 10.0 mi WNW 3.5 mph - N/A   Clear